Torna al catalogo

STARLINK-33983

AttivoComunicazioniVLEO
NORAD 63948·PAYLOAD·🇺🇸 United States

Lanciato May 13, 2025 da Vandenberg Space Force Base

Loading…

Prossimi Passaggi (prossime 24 ore)

TLE

AggiornatoSource: CelesTrak SupGP

Epoca: Sep 14, 2026, 21:38 UTC

1 63948C 25098Y   26257.90187500 -.00017436  00000+0 -60688-3 0  2576
2 63948  70.0008 155.9271 0003389 264.8852   6.4776 15.29568563    16

Traccia STARLINK-33983 in tempo reale con AllMySat

Download on the App Store